Location: Gniazdowice
(50.2124°N, 20.2673°E)
Time: 15:14:01
(UTC+00:00)

Helios 1A Rocket - Pass Details

Date: 23 May 2024
Orbit: 520 x 544 km, 98.3° (Epoch: 12 June)

Event Time Altitude Azimuth Distance (km) Brightness Sun altitude
Exits shadow 00:08:05 32° 220° (SW) 928 3.4 -16.3°
Maximum altitude 00:09:12 41° 261° (W) 788 3.3 -16.2°
Drops below altitude 10° 00:12:53 10° 332° (NNW) 1,795 6.0 -16.0°
Sets 00:15:05 0° 340° (NNW) 2,686 7.1 -15.8°
